Time,TemperatureF,DewpointF,PressureIn,WindDirection,WindDirectionDegrees,WindSpeedMPH,WindSpeedGustMPH,Humidity,HourlyPrecipIn,Conditions,Clouds,dailyrainin,SolarRadiationWatts/m^2,SoftwareType,DateUTC
2013-02-13 00:00:00,28.9,25.2,29.96,ENE,71,0.0,0.0,86,0.00,CLR,SCT,0.11,0.0,WeatherDisplay:10.37,2013-02-12 23:00:00,
2013-02-13 00:05:00,29.0,25.3,29.96,ENE,71,0.0,0.0,86,0.00,RA,SCT,0.00,0.0,WeatherDisplay:10.37,2013-02-12 23:05:00,
2013-02-13 00:10:00,29.0,25.3,29.97,ENE,71,0.0,0.0,86,0.00,RA,SCT,0.00,0.0,WeatherDisplay:10.37,2013-02-12 23:10:00,
2013-02-13 00:15:00,29.0,25.3,29.97,ENE,71,0.0,0.0,86,0.00,CLR,SCT,0.00,0.0,WeatherDisplay:10.37,2013-02-12 23:15:00,
2013-02-13 00:20:00,29.0,25.3,29.96,ENE,71,0.0,0.0,86,0.00,CLR,SCT,0.00,0.0,WeatherDisplay:10.37,2013-02-12 23:20:00,
2013-02-13 00:25:00,28.9,25.2,29.96,ENE,71,2.3,2.3,86,0.00,CLR,SCT,0.00,0.0,WeatherDisplay:10.37,2013-02-12 23:25:00,
2013-02-13 00:30:00,28.9,25.2,29.96,ENE,70,2.3,2.3,86,0.00,CLR,SCT,0.00,0.0,WeatherDisplay:10.37,2013-02-12 23:30:00,
2013-02-13 00:35:00,28.9,25.2,29.97,ENE,70,1.2,1.2,86,0.00,CLR,SCT,0.00,0.0,WeatherDisplay:10.37,2013-02-12 23:35:00,
2013-02-13 00:40:00,28.9,25.2,29.97,ENE,70,1.2,1.2,86,0.00,CLR,SCT,0.00,0.0,WeatherDisplay:10.37,2013-02-12 23:40:00,
2013-02-13 00:45:00,28.9,25.2,29.97,ENE,71,1.2,1.2,86,0.00,CLR,SCT,0.00,0.0,WeatherDisplay:10.37,2013-02-12 23:45:00,
2013-02-13 00:50:00,28.9,25.2,29.97,ENE,71,2.3,2.3,86,0.00,CLR,SCT,0.00,0.0,WeatherDisplay:10.37,2013-02-12 23:50:00,
2013-02-13 00:55:00,29.0,25.3,29.98,ENE,71,3.5,3.5,86,0.00,CLR,SCT,0.00,0.0,WeatherDisplay:10.37,2013-02-12 23:55:00,
2013-02-13 01:00:00,29.0,25.3,29.97,ENE,71,3.5,3.5,86,0.00,CLR,SCT,0.00,0.0,WeatherDisplay:10.37,2013-02-13 00:00:00,
2013-02-13 01:05:00,28.9,25.2,29.98,West,261,4.6,4.6,86,0.00,CLR,SCT,0.00,0.0,WeatherDisplay:10.37,2013-02-13 00:05:00,
2013-02-13 01:10:00,29.0,25.3,29.98,West,263,4.0,4.0,86,0.00,CLR,SCT,0.00,0.0,WeatherDisplay:10.37,2013-02-13 00:10:00,
2013-02-13 01:17:00,28.9,25.2,29.98,West,263,4.6,4.6,86,0.00,CLR,SCT,0.00,0.0,WeatherDisplay:10.37,2013-02-13 00:17:00,
2013-02-13 01:22:00,28.9,25.2,29.98,West,263,4.0,4.0,86,0.00,CLR,SCT,0.00,0.0,WeatherDisplay:10.37,2013-02-13 00:22:00,
2013-02-13 01:28:00,28.8,25.1,29.98,West,263,4.6,0.0,86,0.00,CLR,SCT,0.00,0.0,WeatherDisplay:10.37,2013-02-13 00:28:00,
2013-02-13 01:33:00,28.8,25.1,29.98,West,263,3.5,3.5,86,0.00,CLR,SCT,0.00,0.0,WeatherDisplay:10.37,2013-02-13 00:33:00,
2013-02-13 01:38:00,28.8,25.1,29.99,West,263,4.0,4.0,86,0.00,CLR,SCT,0.00,0.0,WeatherDisplay:10.37,2013-02-13 00:38:00,
2013-02-13 01:43:00,28.8,25.1,29.99,West,263,3.5,3.5,86,0.00,CLR,SCT,0.00,0.0,WeatherDisplay:10.37,2013-02-13 00:43:00,
2013-02-13 01:48:00,28.7,25.0,29.99,West,263,3.5,3.5,86,0.00,CLR,SCT,0.00,0.0,WeatherDisplay:10.37,2013-02-13 00:48:00,
2013-02-13 01:53:00,28.7,25.0,29.99,West,263,4.6,4.6,86,0.00,CLR,SCT,0.00,0.0,WeatherDisplay:10.37,2013-02-13 00:53:00,
2013-02-13 01:58:00,28.6,24.9,29.99,West,262,5.8,5.8,86,0.00,CLR,SCT,0.00,0.0,WeatherDisplay:10.37,2013-02-13 00:58:00,
2013-02-13 02:03:00,28.6,24.9,29.99,West,261,4.6,4.6,86,0.00,CLR,SCT,0.00,0.0,WeatherDisplay:10.37,2013-02-13 01:03:00,
2013-02-13 02:08:00,28.6,24.9,29.99,West,261,4.6,4.6,86,0.00,CLR,SCT,0.00,0.0,WeatherDisplay:10.37,2013-02-13 01:08:00,
2013-02-13 02:13:00,28.5,24.8,29.99,West,261,4.0,4.0,86,0.00,CLR,SCT,0.00,0.0,WeatherDisplay:10.37,2013-02-13 01:13:00,
2013-02-13 02:18:00,28.5,24.8,29.99,West,261,5.8,5.8,86,0.00,CLR,SCT,0.00,0.0,WeatherDisplay:10.37,2013-02-13 01:18:00,
2013-02-13 02:23:00,28.4,24.7,29.99,West,262,4.0,4.0,86,0.00,CLR,SCT,0.00,0.0,WeatherDisplay:10.37,2013-02-13 01:23:00,
2013-02-13 02:28:00,28.4,24.7,29.99,West,261,4.6,4.6,86,0.00,CLR,SCT,0.00,0.0,WeatherDisplay:10.37,2013-02-13 01:28:00,
2013-02-13 02:33:00,28.4,24.7,29.99,West,261,4.6,4.6,86,0.00,CLR,SCT,0.00,0.0,WeatherDisplay:10.37,2013-02-13 01:33:00,
2013-02-13 02:38:00,28.4,24.7,29.99,West,262,3.5,3.5,86,0.00,CLR,SCT,0.00,0.0,WeatherDisplay:10.37,2013-02-13 01:38:00,
2013-02-13 02:43:00,28.3,24.6,30.00,West,261,4.0,4.0,86,0.00,CLR,SCT,0.00,0.0,WeatherDisplay:10.37,2013-02-13 01:43:00,
2013-02-13 02:48:00,28.3,24.6,30.00,West,261,4.6,4.6,86,0.00,CLR,SCT,0.00,0.0,WeatherDisplay:10.37,2013-02-13 01:48:00,
2013-02-13 02:53:00,28.3,24.6,30.00,West,261,4.0,4.0,86,0.00,CLR,SCT,0.00,0.0,WeatherDisplay:10.37,2013-02-13 01:53:00,
2013-02-13 02:58:00,28.3,24.6,30.00,West,261,3.5,3.5,86,0.00,CLR,SCT,0.00,0.0,WeatherDisplay:10.37,2013-02-13 01:58:00,
2013-02-13 03:03:00,28.3,24.6,30.00,West,262,4.0,4.0,86,0.00,CLR,SCT,0.00,0.0,WeatherDisplay:10.37,2013-02-13 02:03:00,
2013-02-13 03:08:00,28.3,24.6,30.01,West,261,4.0,4.0,86,0.00,CLR,SCT,0.00,0.0,WeatherDisplay:10.37,2013-02-13 02:08:00,
2013-02-13 03:13:00,28.3,24.6,30.01,West,261,4.0,4.0,86,0.00,CLR,SCT,0.00,0.0,WeatherDisplay:10.37,2013-02-13 02:13:00,
2013-02-13 03:18:00,28.3,24.6,30.01,West,261,4.6,4.6,86,0.00,CLR,SCT,0.00,0.0,WeatherDisplay:10.37,2013-02-13 02:18:00,
2013-02-13 03:23:00,28.3,24.6,30.01,West,261,4.6,4.6,86,0.00,CLR,SCT,0.00,0.0,WeatherDisplay:10.37,2013-02-13 02:23:00,
2013-02-13 03:28:00,28.3,24.6,30.01,West,261,4.0,4.0,86,0.00,CLR,SCT,0.00,0.0,WeatherDisplay:10.37,2013-02-13 02:28:00,
2013-02-13 03:33:00,28.3,24.6,30.01,West,262,4.0,4.0,86,0.00,CLR,SCT,0.00,0.0,WeatherDisplay:10.37,2013-02-13 02:33:00,
2013-02-13 03:38:00,28.3,24.6,30.01,West,261,3.5,3.5,86,0.00,CLR,SCT,0.00,0.0,WeatherDisplay:10.37,2013-02-13 02:38:00,
2013-02-13 03:43:00,28.2,24.6,30.01,West,261,4.0,4.0,86,0.00,CLR,SCT,0.00,0.0,WeatherDisplay:10.37,2013-02-13 02:43:00,
2013-02-13 03:48:00,28.2,24.6,30.01,West,262,3.5,3.5,86,0.00,CLR,SCT,0.00,0.0,WeatherDisplay:10.37,2013-02-13 02:48:00,
2013-02-13 03:53:00,28.2,24.6,30.01,West,261,3.5,3.5,86,0.00,CLR,SCT,0.00,0.0,WeatherDisplay:10.37,2013-02-13 02:53:00,
2013-02-13 03:59:00,28.2,24.6,30.01,West,262,4.6,4.6,86,0.00,CLR,SCT,0.00,0.0,WeatherDisplay:10.37,2013-02-13 02:59:00,
2013-02-13 04:04:00,28.2,24.6,30.02,West,262,4.6,4.6,86,0.00,CLR,SCT,0.00,0.0,WeatherDisplay:10.37,2013-02-13 03:04:00,
2013-02-13 04:09:00,28.2,24.6,30.02,West,261,4.0,4.0,86,0.00,CLR,SCT,0.00,0.0,WeatherDisplay:10.37,2013-02-13 03:09:00,
2013-02-13 04:14:00,28.2,24.6,30.02,West,261,5.0,5.0,86,0.00,CLR,SCT,0.00,0.0,WeatherDisplay:10.37,2013-02-13 03:14:00,
2013-02-13 04:19:00,28.2,24.6,30.02,West,261,5.8,5.8,86,0.00,CLR,SCT,0.00,0.0,WeatherDisplay:10.37,2013-02-13 03:19:00,
2013-02-13 04:24:00,28.2,24.6,30.03,West,261,4.6,4.6,86,0.00,CLR,SCT,0.00,0.0,WeatherDisplay:10.37,2013-02-13 03:24:00,
2013-02-13 04:29:00,28.2,24.6,30.03,West,262,5.0,5.0,86,0.00,CLR,SCT,0.00,0.0,WeatherDisplay:10.37,2013-02-13 03:29:00,
2013-02-13 04:34:00,28.2,24.6,30.03,West,261,5.8,5.8,86,0.00,CLR,SCT,0.00,0.0,WeatherDisplay:10.37,2013-02-13 03:34:00,
2013-02-13 04:39:00,28.2,24.6,30.03,West,261,4.0,4.0,86,0.00,CLR,SCT,0.00,0.0,WeatherDisplay:10.37,2013-02-13 03:39:00,
2013-02-13 04:44:00,28.2,24.6,30.04,West,261,4.6,4.6,86,0.00,CLR,SCT,0.00,0.0,WeatherDisplay:10.37,2013-02-13 03:44:00,
2013-02-13 04:49:00,28.2,24.6,30.04,West,261,5.8,5.8,86,0.00,CLR,SCT,0.00,0.0,WeatherDisplay:10.37,2013-02-13 03:49:00,
2013-02-13 04:54:00,28.2,24.6,30.04,West,261,4.6,4.6,86,0.00,CLR,SCT,0.00,0.0,WeatherDisplay:10.37,2013-02-13 03:54:00,
2013-02-13 04:59:00,28.2,24.6,30.04,West,261,4.6,4.6,86,0.00,CLR,SCT,0.00,0.0,WeatherDisplay:10.37,2013-02-13 03:59:00,
2013-02-13 05:04:00,28.2,24.6,30.04,West,261,4.0,4.0,86,0.00,CLR,SCT,0.00,0.0,WeatherDisplay:10.37,2013-02-13 04:04:00,
2013-02-13 05:09:00,28.1,24.5,30.04,West,261,5.8,5.8,86,0.00,CLR,SCT,0.00,0.0,WeatherDisplay:10.37,2013-02-13 04:09:00,
2013-02-13 05:14:00,28.1,24.5,30.04,West,261,6.0,6.0,86,0.00,CLR,SCT,0.00,0.0,WeatherDisplay:10.37,2013-02-13 04:14:00,
2013-02-13 05:19:00,28.1,24.5,30.04,West,261,5.8,5.8,86,0.00,CLR,SCT,0.00,0.0,WeatherDisplay:10.37,2013-02-13 04:19:00,
2013-02-13 05:24:00,28.1,24.5,30.04,West,261,4.6,4.6,86,0.00,CLR,SCT,0.00,0.0,WeatherDisplay:10.37,2013-02-13 04:24:00,
2013-02-13 05:29:00,28.1,24.5,30.05,West,261,5.8,5.8,86,0.00,CLR,SCT,0.00,0.0,WeatherDisplay:10.37,2013-02-13 04:29:00,
2013-02-13 05:34:00,28.1,24.5,30.05,West,261,5.8,5.8,86,0.00,CLR,SCT,0.00,0.0,WeatherDisplay:10.37,2013-02-13 04:34:00,
2013-02-13 05:39:00,28.0,24.4,30.05,West,262,5.8,5.8,86,0.00,CLR,SCT,0.00,0.0,WeatherDisplay:10.37,2013-02-13 04:39:00,
2013-02-13 05:44:00,28.0,24.4,30.05,West,261,5.8,5.8,86,0.00,CLR,SCT,0.00,0.0,WeatherDisplay:10.37,2013-02-13 04:44:00,
2013-02-13 05:49:00,28.0,24.4,30.05,West,261,6.0,6.0,86,0.00,CLR,SCT,0.00,0.0,WeatherDisplay:10.37,2013-02-13 04:49:00,
2013-02-13 05:54:00,28.0,24.4,30.06,West,261,5.8,5.8,86,0.00,CLR,SCT,0.00,0.0,WeatherDisplay:10.37,2013-02-13 04:54:00,
2013-02-13 05:59:00,27.9,24.3,30.06,West,261,5.8,5.8,86,0.00,CLR,SCT,0.00,0.0,WeatherDisplay:10.37,2013-02-13 04:59:00,
2013-02-13 06:00:00,28.0,24.4,30.06,West,261,6.0,6.0,86,0.00,CLR,SCT,0.00,0.0,WeatherDisplay:10.37,2013-02-13 05:00:00,
2013-02-13 06:05:00,27.9,24.3,30.06,West,262,8.0,8.0,86,0.00,CLR,SCT,0.00,0.0,WeatherDisplay:10.37,2013-02-13 05:05:00,
2013-02-13 06:06:00,27.9,24.3,30.06,West,261,8.1,8.1,86,0.00,CLR,SCT,0.00,0.0,WeatherDisplay:10.37,2013-02-13 05:06:00,
2013-02-13 06:11:00,27.9,24.3,30.06,West,264,5.8,5.8,86,0.00,CLR,SCT,0.00,0.0,WeatherDisplay:10.37,2013-02-13 05:11:00,
2013-02-13 06:16:00,27.9,24.3,30.06,West,264,6.0,6.0,86,0.00,CLR,SCT,0.00,0.0,WeatherDisplay:10.37,2013-02-13 05:16:00,
2013-02-13 06:21:00,27.9,24.3,30.06,West,265,6.9,6.9,86,0.00,CLR,SCT,0.00,0.0,WeatherDisplay:10.37,2013-02-13 05:21:00,
2013-02-13 06:26:00,27.9,24.3,30.06,West,267,7.0,7.0,86,0.00,CLR,SCT,0.00,0.0,WeatherDisplay:10.37,2013-02-13 05:26:00,
2013-02-13 06:32:00,27.9,24.3,30.07,West,267,6.0,6.0,86,0.00,CLR,SCT,0.00,0.0,WeatherDisplay:10.37,2013-02-13 05:32:00,
2013-02-13 06:37:00,27.9,24.3,30.07,West,267,6.9,6.9,86,0.00,CLR,SCT,0.00,0.0,WeatherDisplay:10.37,2013-02-13 05:37:00,
2013-02-13 06:42:00,27.8,24.2,30.07,West,266,6.9,6.9,86,0.00,CLR,SCT,0.00,0.0,WeatherDisplay:10.37,2013-02-13 05:42:00,
2013-02-13 06:47:00,27.9,24.3,30.08,West,267,8.1,8.1,86,0.00,CLR,SCT,0.00,0.0,WeatherDisplay:10.37,2013-02-13 05:47:00,
2013-02-13 06:52:00,27.9,24.3,30.08,West,267,6.0,6.0,86,0.00,CLR,SCT,0.00,0.0,WeatherDisplay:10.37,2013-02-13 05:52:00,
2013-02-13 06:58:00,27.9,24.3,30.08,West,267,7.0,7.0,86,0.00,CLR,SCT,0.00,0.0,WeatherDisplay:10.37,2013-02-13 05:58:00,
2013-02-13 07:03:00,27.9,24.3,30.08,West,267,6.0,6.0,86,0.00,OVC,SCT,0.00,0.0,WeatherDisplay:10.37,2013-02-13 06:03:00,
2013-02-13 07:08:00,27.8,24.2,30.09,West,269,6.0,6.0,86,0.00,OVC,SCT,0.00,0.0,WeatherDisplay:10.37,2013-02-13 06:08:00,
2013-02-13 07:13:00,27.9,24.3,30.09,West,271,5.0,5.0,86,0.00,OVC,SCT,0.00,0.0,WeatherDisplay:10.37,2013-02-13 06:13:00,
2013-02-13 07:18:00,27.8,24.2,30.09,West,270,5.8,5.8,86,0.00,OVC,SCT,0.00,0.0,WeatherDisplay:10.37,2013-02-13 06:18:00,
2013-02-13 07:23:00,27.8,24.2,30.09,West,271,4.6,4.6,86,0.00,OVC,SCT,0.00,0.0,WeatherDisplay:10.37,2013-02-13 06:23:00,
2013-02-13 07:28:00,27.8,24.2,30.10,West,270,4.6,4.6,86,0.00,OVC,SCT,0.00,0.0,WeatherDisplay:10.37,2013-02-13 06:28:00,
2013-02-13 07:36:00,27.8,24.2,30.10,West,271,6.0,0.0,86,0.00,OVC,SCT,0.00,0.0,WeatherDisplay:10.37,2013-02-13 06:36:00,
2013-02-13 07:41:00,27.8,24.2,30.10,West,271,7.0,7.0,86,0.00,OVC,SCT,0.00,0.0,WeatherDisplay:10.37,2013-02-13 06:41:00,
2013-02-13 07:46:00,27.8,24.2,30.10,West,271,6.0,6.0,86,0.00,OVC,SCT,0.00,5.0,WeatherDisplay:10.37,2013-02-13 06:46:00,
2013-02-13 07:51:00,27.8,24.2,30.10,West,271,5.8,5.8,86,0.00,OVC,SCT,0.00,5.0,WeatherDisplay:10.37,2013-02-13 06:51:00,
2013-02-13 07:57:00,27.8,24.2,30.11,West,271,4.6,4.6,86,0.00,OVC,SCT,0.00,5.0,WeatherDisplay:10.37,2013-02-13 06:57:00,
2013-02-13 08:02:00,27.8,24.2,30.11,West,272,5.8,5.8,86,0.00,OVC,SCT,0.00,7.0,WeatherDisplay:10.37,2013-02-13 07:02:00,
2013-02-13 08:07:00,27.9,24.3,30.11,West,273,6.0,6.0,86,0.00,OVC,SCT,0.00,11.0,WeatherDisplay:10.37,2013-02-13 07:07:00,
2013-02-13 08:12:00,27.9,24.3,30.11,West,273,6.0,6.0,86,0.00,OVC,SCT,0.00,11.0,WeatherDisplay:10.37,2013-02-13 07:12:00,
2013-02-13 08:17:00,28.0,24.4,30.11,West,273,6.0,6.0,86,0.00,OVC,SCT,0.00,12.0,WeatherDisplay:10.37,2013-02-13 07:17:00,
2013-02-13 08:22:00,28.0,24.4,30.11,West,273,6.9,6.9,86,0.00,OVC,SCT,0.00,19.0,WeatherDisplay:10.37,2013-02-13 07:22:00,
2013-02-13 08:27:00,28.1,24.5,30.12,West,273,4.6,4.6,86,0.00,OVC,SCT,0.00,21.0,WeatherDisplay:10.37,2013-02-13 07:27:00,
2013-02-13 08:32:00,28.2,24.6,30.12,West,272,6.9,6.9,86,0.00,OVC,SCT,0.00,30.0,WeatherDisplay:10.37,2013-02-13 07:32:00,
2013-02-13 08:37:00,28.4,24.7,30.12,West,273,6.0,6.0,86,0.00,OVC,SCT,0.00,37.0,WeatherDisplay:10.37,2013-02-13 07:37:00,
2013-02-13 08:42:00,28.6,24.9,30.12,West,273,5.8,5.8,86,0.00,OVC,SCT,0.00,44.0,WeatherDisplay:10.37,2013-02-13 07:42:00,
2013-02-13 08:47:00,28.9,25.2,30.12,West,272,6.0,6.0,86,0.00,OVC,SCT,0.00,44.0,WeatherDisplay:10.37,2013-02-13 07:47:00,
2013-02-13 08:52:00,29.0,25.3,30.12,West,272,7.0,7.0,86,0.00,OVC,SCT,0.00,44.0,WeatherDisplay:10.37,2013-02-13 07:52:00,
2013-02-13 08:57:00,29.1,25.4,30.12,West,273,7.0,7.0,86,0.00,OVC,SCT,0.00,46.0,WeatherDisplay:10.37,2013-02-13 07:57:00,
2013-02-13 09:02:00,29.3,25.6,30.13,West,273,6.9,6.9,86,0.00,OVC,SCT,0.00,47.0,WeatherDisplay:10.37,2013-02-13 08:02:00,
2013-02-13 09:07:00,29.3,25.6,30.13,West,273,7.0,7.0,86,0.00,OVC,SCT,0.00,47.0,WeatherDisplay:10.37,2013-02-13 08:07:00,
2013-02-13 09:12:00,29.4,25.7,30.13,West,271,8.1,8.1,86,0.00,OVC,SCT,0.00,49.0,WeatherDisplay:10.37,2013-02-13 08:12:00,
2013-02-13 09:17:00,29.6,25.9,30.14,West,271,8.1,8.1,86,0.00,OVC,SCT,0.00,47.0,WeatherDisplay:10.37,2013-02-13 08:17:00,
2013-02-13 09:22:00,29.6,25.9,30.14,West,271,7.0,7.0,86,0.00,OVC,SCT,0.00,44.0,WeatherDisplay:10.37,2013-02-13 08:22:00,
2013-02-13 09:27:00,29.7,26.0,30.14,West,271,6.9,6.9,86,0.00,OVC,SCT,0.00,46.0,WeatherDisplay:10.37,2013-02-13 08:27:00,
2013-02-13 09:32:00,29.7,26.0,30.14,West,271,5.8,5.8,86,0.00,OVC,SCT,0.00,46.0,WeatherDisplay:10.37,2013-02-13 08:32:00,
2013-02-13 09:37:00,29.7,26.0,30.15,West,271,6.0,6.0,86,0.00,OVC,SCT,0.00,47.0,WeatherDisplay:10.37,2013-02-13 08:37:00,
2013-02-13 09:42:00,29.7,26.0,30.15,West,271,6.0,6.0,86,0.00,OVC,SCT,0.00,53.0,WeatherDisplay:10.37,2013-02-13 08:42:00,
2013-02-13 09:47:00,29.8,26.1,30.15,West,274,8.1,8.1,86,0.00,OVC,SCT,0.00,56.0,WeatherDisplay:10.37,2013-02-13 08:47:00,
2013-02-13 09:52:00,29.8,26.1,30.15,West,273,6.9,6.9,86,0.00,OVC,SCT,0.00,58.0,WeatherDisplay:10.37,2013-02-13 08:52:00,
2013-02-13 09:57:00,30.0,26.3,30.15,West,275,7.0,7.0,86,0.00,OVC,SCT,0.00,58.0,WeatherDisplay:10.37,2013-02-13 08:57:00,
2013-02-13 10:02:00,30.1,26.4,30.15,West,273,7.0,7.0,86,0.00,OVC,SCT,0.00,60.0,WeatherDisplay:10.37,2013-02-13 09:02:00,
2013-02-13 10:07:00,30.2,26.5,30.16,West,274,8.0,8.0,86,0.00,OVC,SCT,0.00,69.0,WeatherDisplay:10.37,2013-02-13 09:07:00,
2013-02-13 10:12:00,30.3,26.6,30.15,West,274,7.0,7.0,86,0.00,OVC,SCT,0.00,77.0,WeatherDisplay:10.37,2013-02-13 09:12:00,
2013-02-13 10:17:00,30.5,26.8,30.16,West,275,5.8,5.8,86,0.00,OVC,SCT,0.00,93.0,WeatherDisplay:10.37,2013-02-13 09:17:00,
2013-02-13 10:22:00,30.9,27.2,30.16,West,273,7.0,7.0,86,0.00,OVC,SCT,0.00,107.0,WeatherDisplay:10.37,2013-02-13 09:22:00,
2013-02-13 10:27:00,31.0,27.3,30.16,West,269,7.0,7.0,86,0.00,OVC,SCT,0.00,130.0,WeatherDisplay:10.37,2013-02-13 09:27:00,
2013-02-13 10:32:00,31.1,27.4,30.16,West,268,8.1,8.1,86,0.01,RA,SCT,0.01,148.0,WeatherDisplay:10.37,2013-02-13 09:32:00,
2013-02-13 10:37:00,31.1,27.4,30.17,West,267,9.2,9.2,86,0.01,RA,SCT,0.01,153.0,WeatherDisplay:10.37,2013-02-13 09:37:00,
2013-02-13 10:42:00,30.9,27.2,30.17,West,259,8.1,8.1,86,0.01,BKN,SCT,0.01,185.0,WeatherDisplay:10.37,2013-02-13 09:42:00,
2013-02-13 10:47:00,31.0,27.3,30.17,West,261,6.9,6.9,86,0.01,BKN,SCT,0.01,207.0,WeatherDisplay:10.37,2013-02-13 09:47:00,
2013-02-13 10:52:00,30.9,27.2,30.17,West,265,8.1,8.1,86,0.01,BKN,SCT,0.01,230.0,WeatherDisplay:10.37,2013-02-13 09:52:00,
2013-02-13 10:57:00,31.1,27.4,30.17,West,262,9.2,9.2,86,0.01,SCT,,0.01,260.0,WeatherDisplay:10.37,2013-02-13 09:57:00,
2013-02-13 11:02:00,31.5,27.8,30.18,West,264,9.0,9.0,86,0.01,BKN,SCT,0.01,230.0,WeatherDisplay:10.37,2013-02-13 10:02:00,
2013-02-13 11:07:00,31.6,27.9,30.18,West,271,7.0,7.0,86,0.01,SCT,,0.01,290.0,WeatherDisplay:10.37,2013-02-13 10:07:00,
2013-02-13 11:12:00,31.8,28.1,30.18,West,265,8.1,8.1,86,0.01,SCT,,0.01,281.0,WeatherDisplay:10.37,2013-02-13 10:12:00,
2013-02-13 11:17:00,32.1,28.4,30.18,West,265,6.9,6.9,86,0.01,SCT,,0.01,339.0,WeatherDisplay:10.37,2013-02-13 10:17:00,
2013-02-13 11:22:00,32.2,28.2,30.18,West,273,7.0,7.0,85,0.01,SCT,,0.01,283.0,WeatherDisplay:10.37,2013-02-13 10:22:00,
2013-02-13 11:27:00,32.4,28.4,30.19,West,275,7.0,7.0,85,0.01,SCT,,0.01,269.0,WeatherDisplay:10.37,2013-02-13 10:27:00,
2013-02-13 11:32:00,32.6,28.6,30.18,West,273,6.9,6.9,85,0.00,SCT,,0.01,258.0,WeatherDisplay:10.37,2013-02-13 10:32:00,
2013-02-13 11:37:00,32.7,28.7,30.19,West,271,7.0,7.0,85,0.00,SCT,,0.01,299.0,WeatherDisplay:10.37,2013-02-13 10:37:00,
2013-02-13 11:42:00,32.4,28.4,30.19,WNW,282,10.4,10.4,85,0.00,BKN,SCT,0.01,188.0,WeatherDisplay:10.37,2013-02-13 10:42:00,
2013-02-13 11:47:00,31.9,27.9,30.19,West,275,8.1,8.1,85,0.00,BKN,SCT,0.01,241.0,WeatherDisplay:10.37,2013-02-13 10:47:00,
2013-02-13 11:52:00,31.8,27.8,30.19,West,269,10.0,10.0,85,0.00,BKN,SCT,0.01,220.0,WeatherDisplay:10.37,2013-02-13 10:52:00,
2013-02-13 11:57:00,31.8,27.8,30.19,West,271,9.2,9.2,85,0.00,BKN,SCT,0.01,197.0,WeatherDisplay:10.37,2013-02-13 10:57:00,
2013-02-13 12:02:00,31.7,27.7,30.19,West,279,9.0,9.0,85,0.00,BKN,SCT,0.01,239.0,WeatherDisplay:10.37,2013-02-13 11:02:00,
2013-02-13 12:07:00,31.8,27.8,30.19,West,268,8.1,8.1,85,0.00,BKN,SCT,0.01,221.0,WeatherDisplay:10.37,2013-02-13 11:07:00,
2013-02-13 12:12:00,32.0,28.0,30.19,West,274,8.1,8.1,85,0.00,BKN,SCT,0.01,243.0,WeatherDisplay:10.37,2013-02-13 11:12:00,
2013-02-13 12:17:00,31.9,27.9,30.19,West,274,9.2,9.2,85,0.00,OVC,SCT,0.01,176.0,WeatherDisplay:10.37,2013-02-13 11:17:00,
2013-02-13 12:22:00,31.8,27.8,30.19,West,275,9.2,9.2,85,0.00,SCT,,0.01,257.0,WeatherDisplay:10.37,2013-02-13 11:22:00,
2013-02-13 12:27:00,32.0,28.0,30.19,West,268,11.5,11.5,85,0.00,SCT,,0.01,290.0,WeatherDisplay:10.37,2013-02-13 11:27:00,
2013-02-13 12:32:00,32.1,28.1,30.20,West,275,9.2,9.2,85,0.00,BKN,SCT,0.01,269.0,WeatherDisplay:10.37,2013-02-13 11:32:00,
2013-02-13 12:37:00,32.1,28.1,30.20,West,277,9.2,9.2,85,0.00,SCT,,0.01,260.0,WeatherDisplay:10.37,2013-02-13 11:37:00,
2013-02-13 12:42:00,32.2,28.2,30.19,West,273,8.1,8.1,85,0.00,BKN,SCT,0.01,229.0,WeatherDisplay:10.37,2013-02-13 11:42:00,
2013-02-13 12:47:00,32.2,28.2,30.19,West,271,9.2,9.2,85,0.00,SCT,,0.01,237.0,WeatherDisplay:10.37,2013-02-13 11:47:00,
2013-02-13 12:52:00,32.1,28.1,30.19,WNW,284,8.1,8.1,85,0.00,BKN,SCT,0.01,211.0,WeatherDisplay:10.37,2013-02-13 11:52:00,
2013-02-13 12:57:00,32.0,28.0,30.19,West,278,9.2,9.2,85,0.00,BKN,SCT,0.01,237.0,WeatherDisplay:10.37,2013-02-13 11:57:00,
2013-02-13 13:02:00,32.2,28.2,30.20,West,275,8.1,8.1,85,0.00,BKN,SCT,0.01,239.0,WeatherDisplay:10.37,2013-02-13 12:02:00,
2013-02-13 13:07:00,32.4,28.4,30.20,West,273,7.0,7.0,85,0.00,BKN,SCT,0.01,243.0,WeatherDisplay:10.37,2013-02-13 12:07:00,
2013-02-13 13:12:00,32.5,28.5,30.20,West,277,9.2,9.2,85,0.00,BKN,SCT,0.01,209.0,WeatherDisplay:10.37,2013-02-13 12:12:00,
2013-02-13 13:17:00,32.4,28.4,30.20,West,269,9.2,9.2,85,0.00,BKN,SCT,0.01,186.0,WeatherDisplay:10.37,2013-02-13 12:17:00,
2013-02-13 13:22:00,32.3,28.3,30.21,West,275,7.0,7.0,85,0.00,OVC,SCT,0.01,148.0,WeatherDisplay:10.37,2013-02-13 12:22:00,
2013-02-13 13:27:00,32.1,28.1,30.21,West,281,7.0,7.0,85,0.00,OVC,SCT,0.01,144.0,WeatherDisplay:10.37,2013-02-13 12:27:00,
2013-02-13 13:32:00,31.9,27.9,30.21,West,278,7.0,7.0,85,0.00,OVC,SCT,0.01,144.0,WeatherDisplay:10.37,2013-02-13 12:32:00,
2013-02-13 13:37:00,31.9,27.9,30.21,West,279,7.0,7.0,85,0.00,OVC,SCT,0.01,141.0,WeatherDisplay:10.37,2013-02-13 12:37:00,
2013-02-13 13:42:00,31.8,27.8,30.21,West,279,8.1,8.1,85,0.00,OVC,SCT,0.01,155.0,WeatherDisplay:10.37,2013-02-13 12:42:00,
2013-02-13 13:47:00,31.7,27.7,30.22,West,281,7.0,7.0,85,0.00,OVC,SCT,0.01,165.0,WeatherDisplay:10.37,2013-02-13 12:47:00,
2013-02-13 13:52:00,31.7,27.7,30.21,WNW,286,6.9,6.9,85,0.00,BKN,SCT,0.01,153.0,WeatherDisplay:10.37,2013-02-13 12:52:00,
2013-02-13 13:57:00,31.6,27.6,30.22,WNW,287,6.9,6.9,85,0.00,OVC,SCT,0.01,144.0,WeatherDisplay:10.37,2013-02-13 12:57:00,
2013-02-13 14:02:00,31.7,27.7,30.22,WNW,285,7.0,7.0,85,0.00,OVC,SCT,0.01,128.0,WeatherDisplay:10.37,2013-02-13 13:02:00,
2013-02-13 14:07:00,31.6,27.6,30.22,WNW,286,9.2,9.2,85,0.00,OVC,SCT,0.01,121.0,WeatherDisplay:10.37,2013-02-13 13:07:00,
2013-02-13 14:12:00,31.5,27.5,30.22,WNW,286,8.1,8.1,85,0.00,OVC,SCT,0.01,98.0,WeatherDisplay:10.37,2013-02-13 13:12:00,
2013-02-13 14:17:00,31.5,27.5,30.22,WNW,283,8.1,8.1,85,0.00,OVC,SCT,0.01,107.0,WeatherDisplay:10.37,2013-02-13 13:17:00,
2013-02-13 14:22:00,31.4,27.4,30.22,WNW,283,8.1,8.1,85,0.00,OVC,SCT,0.01,111.0,WeatherDisplay:10.37,2013-02-13 13:22:00,
2013-02-13 14:27:00,31.4,27.4,30.22,WNW,288,9.2,9.2,85,0.00,OVC,SCT,0.01,118.0,WeatherDisplay:10.37,2013-02-13 13:27:00,
2013-02-13 14:32:00,31.4,27.4,30.22,WNW,283,9.2,9.2,85,0.00,OVC,SCT,0.01,121.0,WeatherDisplay:10.37,2013-02-13 13:32:00,
2013-02-13 14:37:00,31.4,27.4,30.23,WNW,287,9.2,9.2,85,0.00,OVC,SCT,0.01,120.0,WeatherDisplay:10.37,2013-02-13 13:37:00,
2013-02-13 14:42:00,31.4,27.4,30.23,West,281,8.1,8.1,85,0.00,OVC,SCT,0.01,123.0,WeatherDisplay:10.37,2013-02-13 13:42:00,
2013-02-13 14:47:00,31.3,27.3,30.23,WNW,284,10.4,10.4,85,0.00,OVC,SCT,0.01,107.0,WeatherDisplay:10.37,2013-02-13 13:47:00,
2013-02-13 14:52:00,31.1,26.8,30.23,NW,310,11.5,11.5,84,0.00,OVC,SCT,0.01,95.0,WeatherDisplay:10.37,2013-02-13 13:52:00,
2013-02-13 14:57:00,31.1,26.8,30.23,WNW,290,10.0,10.0,84,0.00,BKN,SCT,0.01,144.0,WeatherDisplay:10.37,2013-02-13 13:57:00,
2013-02-13 15:02:00,31.2,27.2,30.23,WNW,288,8.1,8.1,85,0.00,BKN,SCT,0.01,127.0,WeatherDisplay:10.37,2013-02-13 14:02:00,
2013-02-13 15:07:00,31.3,27.3,30.23,WNW,286,8.0,8.0,85,0.00,BKN,SCT,0.01,114.0,WeatherDisplay:10.37,2013-02-13 14:07:00,
2013-02-13 15:12:00,31.3,27.3,30.23,WNW,293,8.1,8.1,85,0.00,BKN,SCT,0.01,107.0,WeatherDisplay:10.37,2013-02-13 14:12:00,
2013-02-13 15:17:00,31.2,27.2,30.23,NW,307,9.2,9.2,85,0.00,OVC,SCT,0.01,77.0,WeatherDisplay:10.37,2013-02-13 14:17:00,
2013-02-13 15:22:00,31.1,27.1,30.23,NW,319,6.9,6.9,85,0.00,OVC,SCT,0.01,79.0,WeatherDisplay:10.37,2013-02-13 14:22:00,
2013-02-13 15:27:00,30.9,26.9,30.24,NW,311,10.4,10.4,85,0.00,OVC,SCT,0.01,77.0,WeatherDisplay:10.37,2013-02-13 14:27:00,
2013-02-13 15:32:00,30.8,26.8,30.24,NW,306,8.1,8.1,85,0.00,OVC,SCT,0.01,76.0,WeatherDisplay:10.37,2013-02-13 14:32:00,
2013-02-13 15:37:00,30.8,26.8,30.24,NW,319,8.1,8.1,85,0.00,OVC,SCT,0.01,74.0,WeatherDisplay:10.37,2013-02-13 14:37:00,
2013-02-13 15:42:00,30.8,26.8,30.24,NW,321,9.2,9.2,85,0.00,OVC,SCT,0.01,79.0,WeatherDisplay:10.37,2013-02-13 14:42:00,
2013-02-13 15:47:00,30.7,26.7,30.25,NW,312,8.1,8.1,85,0.00,BKN,SCT,0.01,81.0,WeatherDisplay:10.37,2013-02-13 14:47:00,
2013-02-13 15:52:00,30.8,26.8,30.25,NNW,330,6.0,6.0,85,0.00,BKN,SCT,0.01,90.0,WeatherDisplay:10.37,2013-02-13 14:52:00,
2013-02-13 15:57:00,30.8,26.8,30.25,NW,306,8.1,8.1,85,0.00,BKN,SCT,0.01,84.0,WeatherDisplay:10.37,2013-02-13 14:57:00,
2013-02-13 16:02:00,30.8,26.8,30.25,NW,316,8.1,8.1,85,0.00,BKN,SCT,0.01,70.0,WeatherDisplay:10.37,2013-02-13 15:02:00,
2013-02-13 16:07:00,30.8,26.8,30.25,NNW,340,5.0,5.0,85,0.00,BKN,SCT,0.01,56.0,WeatherDisplay:10.37,2013-02-13 15:07:00,
2013-02-13 16:12:00,30.7,26.7,30.25,NW,306,6.9,6.9,85,0.00,OVC,SCT,0.01,39.0,WeatherDisplay:10.37,2013-02-13 15:12:00,
2013-02-13 16:17:00,30.6,26.6,30.25,NW,304,6.0,6.0,85,0.00,OVC,SCT,0.01,28.0,WeatherDisplay:10.37,2013-02-13 15:17:00,
2013-02-13 16:22:00,30.4,26.4,30.25,NW,319,5.8,5.8,85,0.00,OVC,SCT,0.01,19.0,WeatherDisplay:10.37,2013-02-13 15:22:00,
2013-02-13 16:27:00,30.3,26.3,30.26,NW,304,5.0,5.0,85,0.00,OVC,SCT,0.01,14.0,WeatherDisplay:10.37,2013-02-13 15:27:00,
2013-02-13 16:32:00,30.2,26.2,30.26,NW,318,5.8,5.8,85,0.00,OVC,SCT,0.01,11.0,WeatherDisplay:10.37,2013-02-13 15:32:00,
2013-02-13 16:37:00,30.1,26.4,30.26,WNW,297,6.0,6.0,86,0.00,OVC,SCT,0.01,11.0,WeatherDisplay:10.37,2013-02-13 15:37:00,
2013-02-13 16:42:00,30.0,26.3,30.26,WNW,296,6.9,6.9,86,0.00,OVC,SCT,0.01,11.0,WeatherDisplay:10.37,2013-02-13 15:42:00,
2013-02-13 16:47:00,29.9,26.2,30.26,WNW,301,8.1,8.1,86,0.00,OVC,SCT,0.01,7.0,WeatherDisplay:10.37,2013-02-13 15:47:00,
2013-02-13 16:52:00,29.8,25.8,30.26,NW,305,6.9,6.9,85,0.00,OVC,SCT,0.01,7.0,WeatherDisplay:10.37,2013-02-13 15:52:00,
2013-02-13 16:57:00,29.7,26.0,30.26,WNW,293,7.0,7.0,86,0.00,OVC,SCT,0.01,5.0,WeatherDisplay:10.37,2013-02-13 15:57:00,
2013-02-13 17:02:00,29.7,26.0,30.26,WNW,301,6.9,6.9,86,0.00,OVC,SCT,0.01,5.0,WeatherDisplay:10.37,2013-02-13 16:02:00,
2013-02-13 17:07:00,29.6,25.9,30.27,NW,310,9.2,9.2,86,0.00,OVC,SCT,0.01,0.0,WeatherDisplay:10.37,2013-02-13 16:07:00,
2013-02-13 17:12:00,29.6,25.9,30.27,NW,319,8.1,8.1,86,0.00,OVC,SCT,0.01,0.0,WeatherDisplay:10.37,2013-02-13 16:12:00,
2013-02-13 17:17:00,29.6,25.9,30.27,NW,315,6.9,6.9,86,0.00,OVC,SCT,0.01,0.0,WeatherDisplay:10.37,2013-02-13 16:17:00,
2013-02-13 17:22:00,29.5,25.8,30.27,NW,314,9.2,9.2,86,0.00,OVC,SCT,0.01,0.0,WeatherDisplay:10.37,2013-02-13 16:22:00,
2013-02-13 17:27:00,29.5,25.8,30.28,West,279,6.9,6.9,86,0.00,OVC,SCT,0.01,0.0,WeatherDisplay:10.37,2013-02-13 16:27:00,
2013-02-13 17:32:00,29.5,25.8,30.28,WNW,286,7.0,7.0,86,0.00,OVC,SCT,0.01,0.0,WeatherDisplay:10.37,2013-02-13 16:32:00,
2013-02-13 17:37:00,29.4,25.7,30.28,WNW,292,5.8,5.8,86,0.00,OVC,SCT,0.01,0.0,WeatherDisplay:10.37,2013-02-13 16:37:00,
2013-02-13 17:42:00,29.3,27.3,30.28,NW,319,6.9,6.9,92,0.00,OVC,SCT,0.01,0.0,WeatherDisplay:10.37,2013-02-13 16:42:00,
2013-02-13 17:47:00,29.3,25.6,30.28,NW,322,5.8,5.8,86,0.00,CLR,SCT,0.01,0.0,WeatherDisplay:10.37,2013-02-13 16:47:00,
2013-02-13 17:52:00,29.2,25.5,30.28,WNW,295,6.0,6.0,86,0.00,CLR,SCT,0.01,0.0,WeatherDisplay:10.37,2013-02-13 16:52:00,
2013-02-13 17:57:00,29.2,25.5,30.28,WNW,298,5.8,5.8,86,0.00,CLR,SCT,0.01,0.0,WeatherDisplay:10.37,2013-02-13 16:57:00,
2013-02-13 18:02:00,29.1,25.4,30.29,NW,317,8.1,8.1,86,0.00,CLR,SCT,0.01,0.0,WeatherDisplay:10.37,2013-02-13 17:02:00,
2013-02-13 18:07:00,29.1,25.4,30.29,NNW,334,9.2,9.2,86,0.00,CLR,SCT,0.01,0.0,WeatherDisplay:10.37,2013-02-13 17:07:00,
2013-02-13 18:12:00,29.1,25.4,30.29,NNW,329,8.1,8.1,86,0.00,CLR,SCT,0.01,0.0,WeatherDisplay:10.37,2013-02-13 17:12:00,
2013-02-13 18:17:00,29.1,25.4,30.29,NW,320,9.2,9.2,86,0.00,CLR,SCT,0.01,0.0,WeatherDisplay:10.37,2013-02-13 17:17:00,
2013-02-13 18:22:00,29.1,25.4,30.30,NW,316,8.1,8.1,86,0.00,CLR,SCT,0.01,0.0,WeatherDisplay:10.37,2013-02-13 17:22:00,
2013-02-13 18:27:00,29.0,25.3,30.30,WNW,292,10.4,10.4,86,0.00,CLR,SCT,0.01,0.0,WeatherDisplay:10.37,2013-02-13 17:27:00,
2013-02-13 18:32:00,29.1,25.2,30.30,NW,310,8.1,8.1,85,0.00,CLR,SCT,0.01,0.0,WeatherDisplay:10.37,2013-02-13 17:32:00,
2013-02-13 18:37:00,29.1,25.4,30.30,NNW,328,6.9,6.9,86,0.00,CLR,SCT,0.01,0.0,WeatherDisplay:10.37,2013-02-13 17:37:00,
2013-02-13 18:42:00,29.0,25.3,30.30,NW,313,9.2,9.2,86,0.00,CLR,SCT,0.01,0.0,WeatherDisplay:10.37,2013-02-13 17:42:00,
2013-02-13 18:47:00,28.9,25.2,30.30,NW,315,8.1,8.1,86,0.00,CLR,SCT,0.01,0.0,WeatherDisplay:10.37,2013-02-13 17:47:00,
2013-02-13 18:52:00,28.9,25.2,30.30,WNW,290,8.1,8.1,86,0.00,CLR,SCT,0.01,0.0,WeatherDisplay:10.37,2013-02-13 17:52:00,
2013-02-13 18:57:00,28.8,25.1,30.30,West,280,9.2,9.2,86,0.00,CLR,SCT,0.01,0.0,WeatherDisplay:10.37,2013-02-13 17:57:00,
2013-02-13 19:02:00,28.9,25.2,30.30,West,267,9.0,9.0,86,0.00,CLR,SCT,0.01,0.0,WeatherDisplay:10.37,2013-02-13 18:02:00,
2013-02-13 19:07:00,28.8,25.1,30.30,WNW,292,10.4,10.4,86,0.00,CLR,SCT,0.01,0.0,WeatherDisplay:10.37,2013-02-13 18:07:00,
2013-02-13 19:12:00,28.8,25.1,30.30,WNW,287,6.9,6.9,86,0.00,CLR,SCT,0.01,0.0,WeatherDisplay:10.37,2013-02-13 18:12:00,
2013-02-13 19:17:00,28.8,25.1,30.31,WNW,286,8.1,8.1,86,0.00,CLR,SCT,0.01,0.0,WeatherDisplay:10.37,2013-02-13 18:17:00,
2013-02-13 19:22:00,28.7,25.0,30.30,WNW,295,8.0,8.0,86,0.00,CLR,SCT,0.01,0.0,WeatherDisplay:10.37,2013-02-13 18:22:00,
2013-02-13 19:27:00,28.7,25.0,30.30,WNW,298,10.4,10.4,86,0.00,CLR,SCT,0.01,0.0,WeatherDisplay:10.37,2013-02-13 18:27:00,
2013-02-13 19:32:00,28.7,25.0,30.30,WNW,291,9.0,9.0,86,0.00,CLR,SCT,0.01,0.0,WeatherDisplay:10.37,2013-02-13 18:32:00,
2013-02-13 19:37:00,28.7,25.0,30.30,WNW,291,9.2,9.2,86,0.00,CLR,SCT,0.01,0.0,WeatherDisplay:10.37,2013-02-13 18:37:00,
2013-02-13 19:42:00,28.7,25.0,30.30,WNW,286,8.1,8.1,86,0.00,CLR,SCT,0.01,0.0,WeatherDisplay:10.37,2013-02-13 18:42:00,
2013-02-13 19:47:00,28.7,25.0,30.30,West,279,6.9,6.9,86,0.00,CLR,SCT,0.01,0.0,WeatherDisplay:10.37,2013-02-13 18:47:00,
2013-02-13 19:52:00,28.7,25.0,30.30,WNW,298,6.9,6.9,86,0.00,CLR,SCT,0.01,0.0,WeatherDisplay:10.37,2013-02-13 18:52:00,
2013-02-13 19:57:00,28.7,25.0,30.31,WNW,286,7.0,7.0,86,0.00,CLR,SCT,0.01,0.0,WeatherDisplay:10.37,2013-02-13 18:57:00,
2013-02-13 20:02:00,28.6,24.9,30.31,WNW,286,8.1,8.1,86,0.00,CLR,SCT,0.01,0.0,WeatherDisplay:10.37,2013-02-13 19:02:00,
2013-02-13 20:07:00,28.6,24.9,30.31,West,272,8.1,8.1,86,0.00,CLR,SCT,0.01,0.0,WeatherDisplay:10.37,2013-02-13 19:07:00,
2013-02-13 20:12:00,28.6,24.9,30.31,WNW,283,7.0,7.0,86,0.00,CLR,SCT,0.01,0.0,WeatherDisplay:10.37,2013-02-13 19:12:00,
2013-02-13 20:17:00,28.6,24.9,30.31,WNW,284,9.2,9.2,86,0.00,CLR,SCT,0.01,0.0,WeatherDisplay:10.37,2013-02-13 19:17:00,
2013-02-13 20:22:00,28.6,24.9,30.31,WNW,290,8.1,8.1,86,0.00,CLR,SCT,0.01,0.0,WeatherDisplay:10.37,2013-02-13 19:22:00,
2013-02-13 20:27:00,28.6,24.9,30.31,WNW,296,7.0,7.0,86,0.00,CLR,SCT,0.01,0.0,WeatherDisplay:10.37,2013-02-13 19:27:00,
2013-02-13 20:32:00,28.6,24.9,30.31,WNW,298,6.9,6.9,86,0.00,CLR,SCT,0.01,0.0,WeatherDisplay:10.37,2013-02-13 19:32:00,
2013-02-13 20:37:00,28.6,24.9,30.31,WNW,290,6.9,6.9,86,0.00,CLR,SCT,0.01,0.0,WeatherDisplay:10.37,2013-02-13 19:37:00,
2013-02-13 20:42:00,28.6,24.9,30.31,WNW,294,8.1,8.1,86,0.00,CLR,SCT,0.01,0.0,WeatherDisplay:10.37,2013-02-13 19:42:00,
2013-02-13 20:47:00,28.6,24.9,30.32,West,279,7.0,7.0,86,0.00,CLR,SCT,0.01,0.0,WeatherDisplay:10.37,2013-02-13 19:47:00,
2013-02-13 20:52:00,28.6,24.9,30.32,WNW,288,5.8,5.8,86,0.00,CLR,SCT,0.01,0.0,WeatherDisplay:10.37,2013-02-13 19:52:00,
2013-02-13 20:57:00,28.6,24.9,30.32,West,264,7.0,7.0,86,0.00,CLR,SCT,0.01,0.0,WeatherDisplay:10.37,2013-02-13 19:57:00,
2013-02-13 21:02:00,28.5,24.8,30.31,WNW,289,9.2,9.2,86,0.00,CLR,SCT,0.01,0.0,WeatherDisplay:10.37,2013-02-13 20:02:00,
2013-02-13 21:07:00,28.5,24.8,30.32,WNW,284,9.2,9.2,86,0.00,CLR,SCT,0.01,0.0,WeatherDisplay:10.37,2013-02-13 20:07:00,
2013-02-13 21:12:00,28.6,24.9,30.32,West,280,8.1,8.1,86,0.00,CLR,SCT,0.01,0.0,WeatherDisplay:10.37,2013-02-13 20:12:00,
2013-02-13 21:17:00,28.6,24.9,30.32,WNW,298,5.8,5.8,86,0.00,CLR,SCT,0.01,0.0,WeatherDisplay:10.37,2013-02-13 20:17:00,
2013-02-13 21:22:00,28.5,24.8,30.32,WNW,296,5.8,5.8,86,0.00,CLR,SCT,0.01,0.0,WeatherDisplay:10.37,2013-02-13 20:22:00,
2013-02-13 21:27:00,28.5,24.8,30.32,WNW,300,6.0,6.0,86,0.00,CLR,SCT,0.01,0.0,WeatherDisplay:10.37,2013-02-13 20:27:00,
2013-02-13 21:32:00,28.5,24.8,30.33,WNW,296,8.0,8.0,86,0.00,CLR,SCT,0.01,0.0,WeatherDisplay:10.37,2013-02-13 20:32:00,
2013-02-13 21:37:00,28.5,24.8,30.33,WNW,286,6.0,6.0,86,0.00,CLR,SCT,0.01,0.0,WeatherDisplay:10.37,2013-02-13 20:37:00,
2013-02-13 21:42:00,28.5,24.8,30.33,West,281,4.6,4.6,86,0.00,CLR,SCT,0.01,0.0,WeatherDisplay:10.37,2013-02-13 20:42:00,
2013-02-13 21:47:00,28.5,24.8,30.33,WNW,296,5.8,5.8,86,0.00,CLR,SCT,0.01,0.0,WeatherDisplay:10.37,2013-02-13 20:47:00,
2013-02-13 21:52:00,28.5,24.8,30.33,WNW,297,5.8,5.8,86,0.00,CLR,SCT,0.01,0.0,WeatherDisplay:10.37,2013-02-13 20:52:00,
2013-02-13 21:57:00,28.5,24.8,30.33,WNW,288,5.0,5.0,86,0.00,CLR,SCT,0.01,0.0,WeatherDisplay:10.37,2013-02-13 20:57:00,
2013-02-13 22:02:00,28.5,24.8,30.33,West,281,6.0,6.0,86,0.00,CLR,SCT,0.01,0.0,WeatherDisplay:10.37,2013-02-13 21:02:00,
2013-02-13 22:07:00,28.4,24.7,30.33,WNW,285,7.0,7.0,86,0.00,CLR,SCT,0.01,0.0,WeatherDisplay:10.37,2013-02-13 21:07:00,
2013-02-13 22:12:00,28.4,24.7,30.33,WNW,300,6.0,6.0,86,0.00,CLR,SCT,0.01,0.0,WeatherDisplay:10.37,2013-02-13 21:12:00,
2013-02-13 22:17:00,28.4,24.7,30.33,WNW,290,7.0,7.0,86,0.00,CLR,SCT,0.01,0.0,WeatherDisplay:10.37,2013-02-13 21:17:00,
2013-02-13 22:22:00,28.5,24.8,30.33,NW,312,5.8,5.8,86,0.00,CLR,SCT,0.01,0.0,WeatherDisplay:10.37,2013-02-13 21:22:00,
2013-02-13 22:27:00,28.4,24.7,30.33,NW,306,6.9,6.9,86,0.00,CLR,SCT,0.01,0.0,WeatherDisplay:10.37,2013-02-13 21:27:00,
2013-02-13 22:32:00,28.4,24.7,30.33,West,277,6.0,6.0,86,0.00,CLR,SCT,0.01,0.0,WeatherDisplay:10.37,2013-02-13 21:32:00,
2013-02-13 22:37:00,28.5,24.8,30.33,WNW,300,5.8,5.8,86,0.00,CLR,SCT,0.01,0.0,WeatherDisplay:10.37,2013-02-13 21:37:00,
2013-02-13 22:42:00,28.4,24.7,30.33,WNW,292,6.9,6.9,86,0.00,CLR,SCT,0.01,0.0,WeatherDisplay:10.37,2013-02-13 21:42:00,
2013-02-13 22:47:00,28.4,24.7,30.33,WNW,290,5.8,5.8,86,0.00,CLR,SCT,0.01,0.0,WeatherDisplay:10.37,2013-02-13 21:47:00,
2013-02-13 22:52:00,28.4,24.7,30.33,WNW,293,5.8,5.8,86,0.00,CLR,SCT,0.01,0.0,WeatherDisplay:10.37,2013-02-13 21:52:00,
2013-02-13 22:57:00,28.3,24.6,30.33,WNW,289,6.0,6.0,86,0.00,CLR,SCT,0.01,0.0,WeatherDisplay:10.37,2013-02-13 21:57:00,
2013-02-13 23:02:00,28.3,24.6,30.33,WNW,303,6.9,6.9,86,0.00,CLR,SCT,0.01,0.0,WeatherDisplay:10.37,2013-02-13 22:02:00,
2013-02-13 23:07:00,28.3,24.6,30.33,West,281,7.0,7.0,86,0.00,CLR,SCT,0.01,0.0,WeatherDisplay:10.37,2013-02-13 22:07:00,
2013-02-13 23:12:00,28.2,24.6,30.33,West,281,8.1,8.1,86,0.00,CLR,SCT,0.01,0.0,WeatherDisplay:10.37,2013-02-13 22:12:00,
2013-02-13 23:17:00,28.2,24.6,30.33,WNW,286,9.0,9.0,86,0.00,CLR,SCT,0.01,0.0,WeatherDisplay:10.37,2013-02-13 22:17:00,
2013-02-13 23:22:00,28.2,24.6,30.33,WNW,302,6.9,6.9,86,0.00,CLR,SCT,0.01,0.0,WeatherDisplay:10.37,2013-02-13 22:22:00,
2013-02-13 23:27:00,28.2,24.6,30.33,WNW,284,5.8,5.8,86,0.00,CLR,SCT,0.01,0.0,WeatherDisplay:10.37,2013-02-13 22:27:00,
2013-02-13 23:32:00,28.2,24.6,30.33,WNW,298,6.0,6.0,86,0.00,CLR,SCT,0.01,0.0,WeatherDisplay:10.37,2013-02-13 22:32:00,
2013-02-13 23:37:00,28.2,24.6,30.33,NW,305,5.8,5.8,86,0.00,CLR,SCT,0.01,0.0,WeatherDisplay:10.37,2013-02-13 22:37:00,
2013-02-13 23:42:00,28.2,24.6,30.33,WNW,299,5.0,5.0,86,0.00,CLR,SCT,0.01,0.0,WeatherDisplay:10.37,2013-02-13 22:42:00,
2013-02-13 23:47:00,28.2,24.6,30.33,WNW,284,5.0,5.0,86,0.00,CLR,SCT,0.01,0.0,WeatherDisplay:10.37,2013-02-13 22:47:00,
2013-02-13 23:52:00,28.2,24.6,30.33,WNW,292,8.1,8.1,86,0.00,CLR,SCT,0.01,0.0,WeatherDisplay:10.37,2013-02-13 22:52:00,
2013-02-13 23:57:00,28.2,24.6,30.34,WNW,290,5.8,5.8,86,0.00,CLR,SCT,0.01,0.0,WeatherDisplay:10.37,2013-02-13 22:57:00,